[[{"header":{"parameterUnit":"m.s-1","parameterCategory":1,"la1":30.2991,"la2":30.254,"lo1":-89.0895,"lo2":-89.0444,"dy":0.0017,"dx":0.0017,"nx":28,"ny":28,"refTime":"2023-11-02T21:00:00:Z","depth":0,"parameterNumber":2,"parameterNumberName":"U-component_of_WINDS"},"data":[0,0,0,0,0,0,0,0,0,0,0,0,0,0,0,0,0,0,0,0,0,0,0,0,0,0,0,0,0,0,0,0,0,0,0,0,0,0,0,0,0,0,0,0,0,0,0,0,0,0,0,0,0,0,0,0,0,0,-1.0745,-1.0745,0,-1.0739,-1.0739,-1.0738,-1.0684,-1.0683,-1.0681,-1.068,-1.0674,-1.0675,-1.0676,0,0,0,0,0,0,0,0,0,0,0,0,0,-1.0713,-1.0714,-1.0745,-1.0745,-1.0745,-1.0739,-1.0738,-1.0738,-1.0684,-1.0683,-1.0681,-1.068,-1.0674,-1.0675,-1.0676,0,0,0,0,0,0,0,0,0,0,0,0,0,-1.0719,-1.0714,-1.0746,-1.0718,-1.0715,-1.0739,-1.0738,-1.0738,-1.0685,-1.0683,-1.0681,-1.0679,-1.0673,-1.0675,-1.0677,-1.0727,0,0,-1.0682,-1.0682,0,0,0,0,0,0,0,0,-1.0719,-1.072,-1.0722,-1.0719,-1.0717,-1.071,-1.0725,-1.0735,-1.0685,-1.0696,-1.068,-1.0678,-1.0688,-1.0688,-1.0691,-1.0727,-1.0726,-1.0682,-1.0683,-1.0683,-1.0684,0,0,0,0,0,0,0,-1.0718,-1.072,-1.0743,-1.0722,-1.0719,-1.0706,-1.0704,-1.0726,-1.0703,-1.0695,-1.0691,-1.0691,-1.0686,-1.069,-1.0691,-1.0726,-1.0682,-1.0683,-1.0684,-1.0685,-1.0805,-1.0807,0,0,0,0,0,0,-1.0722,-1.072,-1.0743,-1.0743,-1.0713,-1.0708,-1.0706,-1.0714,-1.0703,-1.0699,-1.0693,-1.0689,-1.0688,-1.0689,-1.069,-1.075,-1.0683,-1.0685,-1.0686,-1.0802,-1.0805,-1.0807,0,0,0,0,0,0,-1.0721,-1.0724,-1.0743,-1.073,-1.0732,-1.0711,-1.072,-1.0715,-1.0719,-1.0701,-1.0697,-1.0701,-1.0686,-1.0688,-1.0719,-1.0749,-1.0686,-1.0687,-1.08,-1.0803,-1.0806,-1.087,0,0,0,0,0,0,-1.0721,-1.0724,-1.0743,-1.0731,-1.0733,-1.0771,-1.0722,-1.0717,-1.0722,-1.0716,-1.0708,-1.0704,-1.0685,-1.0716,-1.072,-1.075,-1.0688,-1.0797,-1.0801,-1.0805,-1.0865,-1.0875,-1.0883,0,0,0,0,0,-1.072,-1.0761,-1.0744,-1.0747,-1.0755,-1.0773,-1.0774,-1.0751,-1.0724,-1.0743,-1.0732,-1.0705,-1.0745,-1.072,-1.0724,-1.0755,-1.0795,-1.08,-1.0805,-1.0861,-1.0873,-1.0883,0,0,0,0,0,0,-1.0777,-1.0759,-1.074,-1.0779,-1.0778,-1.0764,-1.0787,-1.0764,-1.0771,-1.0766,-1.0736,-1.0735,-1.0771,-1.0765,-1.0738,-1.0804,-1.0765,-1.0771,-1.0806,-1.0818,-1.0827,-1.0828,-1.069,0,0,0,0,0,-1.0794,-1.081,-1.0793,-1.0829,-1.0829,-1.0808,-1.0815,-1.0797,-1.0796,-1.0795,-1.0786,-1.0786,-1.0798,-1.0807,-1.0818,-1.0863,-1.0862,-1.0886,-1.0896,-1.0903,-1.0909,-1.0935,-1.0946,-1.0824,-1.0824,-1.0824,0,0,-1.0829,-1.0821,-1.0833,-1.084,-1.0837,-1.0855,-1.0808,-1.0829,-1.0842,-1.0798,-1.0827,-1.082,-1.0818,-1.0857,-1.0873,-1.0854,-1.0943,-1.091,-1.0916,-1.0918,-1.0941,-1.0953,-1.0963,-1.0827,-1.0826,-1.0826,0,0,-1.0904,-1.0898,-1.0929,-1.0927,-1.0924,-1.091,-1.0917,-1.0907,-1.0901,-1.0929,-1.0897,-1.0912,-1.0934,-1.0935,-1.0938,-1.1013,-1.0989,-1.1017,-1.1066,-1.1092,-1.1101,-1.111,-1.1139,-1.1149,-1.1023,-1.1023,-1.1023,0,-1.0949,-1.0974,-1.0947,-1.097,-1.0975,-1.0935,-1.0967,-1.0966,-1.0967,-1.0971,-1.0949,-1.0977,-1.0972,-1.1011,-1.103,-1.1033,-1.1042,-1.1019,-1.1102,-1.111,-1.1118,-1.1145,-1.1156,-1.1027,-1.1026,-1.1026,-1.1026,0,-1.103,-1.1048,-1.1072,-1.1074,-1.1081,-1.1108,-1.1087,-1.1097,-1.1079,-1.1067,-1.1098,-1.1091,-1.11,-1.1108,-1.109,-1.1145,-1.1133,-1.1107,-1.1068,-1.1134,-1.1159,-1.1169,-1.1032,-1.1031,-1.103,-1.1029,0,0,-1.1141,-1.1128,-1.1138,-1.1139,-1.1132,-1.1146,-1.1171,-1.1181,-1.1191,-1.1193,-1.1215,-1.1234,-1.121,-1.1214,-1.1195,-1.1217,-1.128,-1.1188,-1.1188,-1.1208,-1.1343,-1.1365,-1.1378,-1.1263,-1.1265,-1.1267,-1.1344,0,-1.1214,-1.1257,-1.1234,-1.128,-1.1297,-1.1261,-1.1283,-1.1282,-1.1273,-1.1286,-1.1275,-1.1291,-1.1256,-1.1259,-1.1279,-1.1269,-1.1308,-1.1262,-1.1285,-1.1286,-1.1289,-1.139,-1.1413,-1.1487,-1.1354,-1.1355,-1.1357,0,-1.1305,-1.1311,-1.1359,-1.1351,-1.1358,-1.1378,-1.1386,-1.1398,-1.1397,-1.1389,-1.1393,-1.137,-1.1395,-1.1356,-1.1391,-1.1361,-1.1369,-1.1365,-1.1368,-1.1371,-1.1327,-1.1398,-1.1509,-1.1521,-1.1372,-1.137,-1.1369,0,-1.1384,-1.1404,-1.1436,-1.1437,-1.1428,-1.1444,-1.1441,-1.1437,-1.1445,-1.1451,-1.1456,-1.1465,-1.1471,-1.1479,-1.146,-1.1432,-1.1499,-1.1457,-1.1494,-1.1495,-1.1511,-1.1511,-1.1628,-1.1513,-1.1513,-1.1513,-1.1512,0,-1.1469,-1.15,-1.1471,-1.1491,-1.1526,-1.1499,-1.1534,-1.1527,-1.1525,-1.1544,-1.1512,-1.153,-1.1502,-1.1518,-1.1502,-1.1536,-1.1538,-1.1533,-1.1529,-1.1537,-1.1538,-1.1543,-1.1539,-1.1516,-1.1515,-1.1514,-1.1514,0,-1.1563,-1.1545,-1.1578,-1.1566,-1.1564,-1.1591,-1.1581,-1.16,-1.1588,-1.1612,-1.1616,-1.1598,-1.1615,-1.1595,-1.1611,-1.1601,-1.1646,-1.1634,-1.1647,-1.1644,-1.1684,-1.1681,-1.1809,-1.1826,-1.1699,-1.17,-1.1701,0,-1.162,-1.1643,-1.1635,-1.1645,-1.1644,-1.1661,-1.1669,-1.1643,-1.1653,-1.1654,-1.1673,-1.1687,-1.1698,-1.1727,-1.1715,-1.1727,-1.1716,-1.176,-1.1718,-1.1726,-1.172,-1.172,-1.1723,-1.177,-1.1771,-1.1772,-1.1773,0,-1.1723,-1.1713,-1.1725,-1.1735,-1.1745,-1.1751,-1.1755,-1.1765,-1.1739,-1.1752,-1.1769,-1.1777,-1.1793,-1.1809,-1.1818,-1.1815,-1.1791,-1.1787,-1.1796,-1.1806,-1.1814,-1.1813,-1.1673,-1.1784,-1.1783,-1.1782,-1.1782,-1.1781,-1.1802,-1.1822,-1.182,-1.1835,-1.1835,-1.184,-1.1857,-1.1848,-1.1861,-1.1873,-1.1857,-1.1879,-1.1878,-1.1888,-1.1888,-1.1906,-1.1887,-1.1901,-1.1904,-1.1909,-1.1916,-1.1809,-1.1907,-1.1907,-1.1906,-1.1906,-1.1906,0,-1.1906,-1.1902,-1.1916,-1.1923,-1.1936,-1.191,-1.1914,-1.1926,-1.1946,-1.1947,-1.1958,-1.1979,-1.1994,-1.1984,-1.1997,-1.2013,-1.2002,-1.2018,-1.2017,-1.2018,-1.193,-1.1922,-1.2026,-1.2026,-1.2026,-1.2026,-1.2026,-1.2026,-1.1961,-1.1994,-1.1984,-1.2018,-1.2014,-1.2036,-1.204,-1.2045,-1.2046,-1.207,-1.2083,-1.2076,-1.2073,-1.2086,-1.2099,-1.2096,-1.2103,-1.2123,-1.2116,-1.2035,-1.2023,-1.2012,-1.2004,-1.2124,-1.2124,-1.2202,-1.2203,-1.2203]},{"header":{"parameterUnit":"m.s-1","parameterCategory":1,"la1":30.2991,"la2":30.254,"lo1":-89.0895,"lo2":-89.0444,"dy":0.0017,"dx":0.0017,"nx":28,"ny":28,"refTime":"2023-11-02T21:00:00:Z","depth":0,"parameterNumber":3,"parameterNumberName":"V-component_of_WINDS"},"data":[0,0,0,0,0,0,0,0,0,0,0,0,0,0,0,0,0,0,0,0,0,0,0,0,0,0,0,0,0,0,0,0,0,0,0,0,0,0,0,0,0,0,0,0,0,0,0,0,0,0,0,0,0,0,0,0,0,0,-1.0917,-1.0917,0,-1.0911,-1.0911,-1.0911,-1.0887,-1.0886,-1.0886,-1.0885,-1.088,-1.088,-1.0881,0,0,0,0,0,0,0,0,0,0,0,0,0,-1.0908,-1.0909,-1.0917,-1.0917,-1.0917,-1.0911,-1.0911,-1.0911,-1.0887,-1.0886,-1.0885,-1.0885,-1.088,-1.088,-1.0881,0,0,0,0,0,0,0,0,0,0,0,0,0,-1.0908,-1.0909,-1.0917,-1.0904,-1.0903,-1.0911,-1.0911,-1.0911,-1.0887,-1.0886,-1.0885,-1.0884,-1.088,-1.088,-1.0881,-1.0902,0,0,-1.0883,-1.0883,0,0,0,0,0,0,0,0,-1.0908,-1.0909,-1.0906,-1.0905,-1.0904,-1.0899,-1.0906,-1.0908,-1.0887,-1.0893,-1.0885,-1.0884,-1.0887,-1.0887,-1.0888,-1.0901,-1.0901,-1.0883,-1.0883,-1.0883,-1.0883,0,0,0,0,0,0,0,-1.0908,-1.0909,-1.0915,-1.0906,-1.0904,-1.0899,-1.0898,-1.0906,-1.0895,-1.0892,-1.0891,-1.089,-1.0886,-1.0887,-1.0887,-1.0901,-1.0883,-1.0883,-1.0883,-1.0884,-1.0934,-1.0935,0,0,0,0,0,0,-1.091,-1.0909,-1.0915,-1.0915,-1.0904,-1.09,-1.0899,-1.0901,-1.0895,-1.0893,-1.0891,-1.0889,-1.0887,-1.0887,-1.0887,-1.0913,-1.0883,-1.0884,-1.0884,-1.0933,-1.0934,-1.0935,0,0,0,0,0,0,-1.091,-1.0911,-1.0915,-1.0911,-1.0911,-1.0901,-1.0904,-1.0902,-1.0903,-1.0894,-1.0892,-1.0894,-1.0886,-1.0886,-1.0899,-1.0913,-1.0884,-1.0885,-1.0932,-1.0933,-1.0935,-1.0964,0,0,0,0,0,0,-1.091,-1.0911,-1.0918,-1.0912,-1.0912,-1.0926,-1.0905,-1.0902,-1.0904,-1.0901,-1.0896,-1.0894,-1.0885,-1.0898,-1.0899,-1.0913,-1.0885,-1.0931,-1.0932,-1.0934,-1.0962,-1.0966,-1.097,0,0,0,0,0,-1.091,-1.0926,-1.0919,-1.092,-1.0921,-1.0927,-1.0927,-1.0916,-1.0905,-1.0913,-1.0907,-1.0895,-1.091,-1.0899,-1.0901,-1.0915,-1.093,-1.0932,-1.0934,-1.096,-1.0966,-1.097,0,0,0,0,0,0,-1.0935,-1.0925,-1.0917,-1.0932,-1.093,-1.0923,-1.0932,-1.0922,-1.0924,-1.0922,-1.0908,-1.0907,-1.0922,-1.0919,-1.0907,-1.0936,-1.0918,-1.0921,-1.0937,-1.0942,-1.0947,-1.0948,-1.0886,0,0,0,0,0,-1.0942,-1.0948,-1.0939,-1.0953,-1.0953,-1.0943,-1.0945,-1.0937,-1.0935,-1.0935,-1.093,-1.0929,-1.0934,-1.0938,-1.0942,-1.0961,-1.0961,-1.0971,-1.0975,-1.0979,-1.0982,-1.0994,-1.1,-1.0942,-1.0942,-1.0942,0,0,-1.0957,-1.0953,-1.0957,-1.0958,-1.0956,-1.0964,-1.0943,-1.0951,-1.0956,-1.0936,-1.0948,-1.0945,-1.0943,-1.0959,-1.0966,-1.0957,-1.0997,-1.0982,-1.0984,-1.0986,-1.0997,-1.1003,-1.1007,-1.0944,-1.0944,-1.0943,0,0,-1.0989,-1.0985,-1.0998,-1.0996,-1.0994,-1.0987,-1.0991,-1.0985,-1.0982,-1.0994,-1.098,-1.0986,-1.0994,-1.0994,-1.0995,-1.1029,-1.1018,-1.103,-1.1053,-1.1065,-1.107,-1.1074,-1.1088,-1.1093,-1.1033,-1.1033,-1.1033,0,-1.1008,-1.1018,-1.1005,-1.1015,-1.1017,-1.0999,-1.1013,-1.1012,-1.1011,-1.1013,-1.1003,-1.1014,-1.1011,-1.1029,-1.1037,-1.1038,-1.1043,-1.1032,-1.107,-1.1074,-1.1077,-1.1091,-1.1096,-1.1035,-1.1034,-1.1034,-1.1034,0,-1.1043,-1.1051,-1.1061,-1.1062,-1.1064,-1.1076,-1.1066,-1.107,-1.1061,-1.1056,-1.107,-1.1066,-1.107,-1.1073,-1.1064,-1.109,-1.1085,-1.1072,-1.1055,-1.1085,-1.1098,-1.1102,-1.1037,-1.1036,-1.1036,-1.1036,0,0,-1.1091,-1.1085,-1.1089,-1.109,-1.1087,-1.1093,-1.1104,-1.1108,-1.1113,-1.1113,-1.1123,-1.1131,-1.1121,-1.1122,-1.1113,-1.1124,-1.1154,-1.111,-1.111,-1.1121,-1.1184,-1.1196,-1.1202,-1.1146,-1.1147,-1.1147,-1.1185,0,-1.1124,-1.1143,-1.1132,-1.1153,-1.1161,-1.1144,-1.1155,-1.1154,-1.115,-1.1156,-1.1151,-1.1158,-1.1142,-1.1143,-1.1152,-1.1148,-1.1167,-1.1145,-1.1157,-1.1158,-1.1161,-1.1208,-1.1219,-1.1256,-1.119,-1.1191,-1.1191,0,-1.1164,-1.1167,-1.1189,-1.1186,-1.1189,-1.1198,-1.1202,-1.1208,-1.1208,-1.1204,-1.1206,-1.1195,-1.1207,-1.1189,-1.1206,-1.1192,-1.1196,-1.1195,-1.1196,-1.1198,-1.1178,-1.1214,-1.1267,-1.1273,-1.1199,-1.1198,-1.1197,0,-1.12,-1.1209,-1.1224,-1.1225,-1.1221,-1.1229,-1.1227,-1.1226,-1.123,-1.1233,-1.1236,-1.124,-1.1244,-1.1248,-1.1239,-1.1226,-1.1259,-1.1239,-1.1258,-1.1258,-1.1267,-1.1267,-1.1324,-1.1266,-1.1266,-1.1265,-1.1265,0,-1.1239,-1.1254,-1.1241,-1.125,-1.1267,-1.1255,-1.1272,-1.1269,-1.1268,-1.1277,-1.1262,-1.1272,-1.1258,-1.1267,-1.126,-1.1277,-1.1278,-1.1276,-1.1275,-1.1279,-1.128,-1.1283,-1.1282,-1.1267,-1.1267,-1.1266,-1.1266,0,-1.1283,-1.1274,-1.129,-1.1286,-1.1285,-1.1298,-1.1294,-1.1303,-1.1298,-1.131,-1.1312,-1.1304,-1.1313,-1.1305,-1.1313,-1.1308,-1.1332,-1.1326,-1.1333,-1.1332,-1.1353,-1.1352,-1.1415,-1.1424,-1.1358,-1.1359,-1.1359,0,-1.1309,-1.132,-1.1318,-1.1323,-1.1323,-1.1331,-1.1336,-1.1324,-1.1329,-1.1331,-1.134,-1.1348,-1.1354,-1.137,-1.1365,-1.1372,-1.1367,-1.1389,-1.1368,-1.1373,-1.1371,-1.1372,-1.1374,-1.1394,-1.1395,-1.1395,-1.1396,0,-1.1358,-1.1354,-1.136,-1.1366,-1.1372,-1.1375,-1.1378,-1.1383,-1.1372,-1.1379,-1.1388,-1.1393,-1.1402,-1.1411,-1.1417,-1.1416,-1.1405,-1.1402,-1.1408,-1.1413,-1.1418,-1.1419,-1.1347,-1.1401,-1.1401,-1.14,-1.14,-1.14,-1.1396,-1.1406,-1.1406,-1.1415,-1.1416,-1.1419,-1.1428,-1.1424,-1.1432,-1.1439,-1.1432,-1.1444,-1.1445,-1.1451,-1.1452,-1.1463,-1.1454,-1.146,-1.1463,-1.1465,-1.147,-1.1415,-1.1463,-1.1463,-1.1463,-1.1463,-1.1462,0,-1.1446,-1.1446,-1.1454,-1.1459,-1.1466,-1.1454,-1.1457,-1.1464,-1.1475,-1.1477,-1.1483,-1.1495,-1.1504,-1.15,-1.1508,-1.1518,-1.1513,-1.152,-1.1521,-1.1522,-1.1476,-1.1472,-1.1524,-1.1524,-1.1524,-1.1524,-1.1524,-1.1524,-1.1474,-1.1491,-1.1487,-1.1506,-1.1505,-1.1517,-1.1521,-1.1524,-1.1526,-1.154,-1.1548,-1.1545,-1.1545,-1.1553,-1.1562,-1.156,-1.1565,-1.1575,-1.1572,-1.153,-1.1524,-1.1519,-1.1515,-1.1576,-1.1576,-1.1618,-1.1618,-1.1618]}]]